This is the latest recevied weather packets stored in our database for station/object K2RMB. If no packets are shown the sender has not sent any weather packets the latest 10 day(s).
| Time | Temp. | Humidity | Pressure | Rain* | Wind** | Luminosity | Snow |
|---|---|---|---|---|---|---|---|
| 1777645043 | 7.78° C | 58% | 1012.5 hPa | 0 mm | - | 232 W/m² | - |
| 1777644741 | 8.33° C | 54% | 1012.5 hPa | 0 mm | - | 191 W/m² | - |
| 1777644438 | 8.33° C | 56% | 1012.1 hPa | 0 mm | - | 181 W/m² | - |
| 1777644135 | 8.33° C | 55% | 1012.1 hPa | 0 mm | - | 665 W/m² | - |
| 1777643831 | 7.78° C | 61% | 1012.1 hPa | 0 mm | - | 661 W/m² | - |
| 1777643529 | 7.78° C | 59% | 1012.1 hPa | 0 mm | - | 667 W/m² | - |
| 1777643225 | 7.78° C | 59% | 1012.1 hPa | 0 mm | - | 467 W/m² | - |
| 1777642921 | 7.78° C | 60% | 1012.1 hPa | 0 mm | - | 642 W/m² | - |
| 1777642618 | 7.78° C | 59% | 1012.5 hPa | 0 mm | - | 590 W/m² | - |
| 1777642315 | 7.78° C | 64% | 1012.1 hPa | 0 mm | - | 89 W/m² | - |
| 1777642012 | 7.78° C | 63% | 1012.5 hPa | 0 mm | - | 109 W/m² | - |
| 1777641708 | 7.78° C | 62% | 1012.1 hPa | 0 mm | - | 559 W/m² | - |
| 1777641403 | 7.22° C | 64% | 1012.1 hPa | 0 mm | - | 96 W/m² | - |
| 1777641098 | 6.67° C | 66% | 1012.1 hPa | 0 mm | - | 455 W/m² | - |
| 1777640795 | 6.67° C | 68% | 1012.5 hPa | 0 mm | - | 479 W/m² | - |
| 1777640492 | 6.67° C | 67% | 1012.5 hPa | 0 mm | - | 372 W/m² | - |
| 1777640189 | 6.67° C | 69% | 1012.5 hPa | 0 mm | - | 174 W/m² | - |
| 1777639885 | 6.67° C | 72% | 1012.5 hPa | 0 mm | - | 371 W/m² | - |
| 1777639583 | 6.11° C | 71% | 1012.5 hPa | 0 mm | - | 119 W/m² | - |
| 1777639280 | 6.11° C | 74% | 1012.5 hPa | 0 mm | - | 74 W/m² | - |
| 1777638976 | 5.56° C | 75% | 1012.5 hPa | 0 mm | - | 60 W/m² | - |
| 1777638671 | 5.56° C | 76% | 1012.5 hPa | 0 mm | - | 107 W/m² | - |
| 1777638368 | 5.56° C | 75% | 1012.1 hPa | 0 mm | - | 79 W/m² | - |
| 1777638064 | 5.56° C | 77% | 1012.1 hPa | 0 mm | - | 95 W/m² | - |
| 1777637761 | 5.56° C | 78% | 1012.5 hPa | 0 mm | - | 91 W/m² | - |
* Rain latest hour (hover to see other rain measurements)
** Current wind speed in m/s (hover to see current wind gust speed)